Wind_Speed
14 14 14 14 14 14 14 14 14 14 14 15 16 17 18 18 18 18 17 17 17 17 17 17 18 18 19 19 20 20 20 20 21 21 22 21 21 22 22 22 22 22 22
15 15 15 15 15 15 15 15 15 15 15 17 17 19 19 19 19 19 18 18 18 19 19 19 19 20 20 21 21 21 22 22 22 22 22 23 23 23 24 23 24 24 24
16 17 17 16 16 16 17 17 17 17 17 18 19 19 19 19 20 19 19 20 20 20 20 20 21 21 22 22 22 22 23 23 23 24 24 24 24 25 25 24 25 24 24
17 17 18 18 17 17 17 17 18 18 18 19 19 20 20 20 21 21 21 21 21 21 22 22 22 23 23 23 23 24 24 25 25 25 25 25 25 25 25 26 25 25 25
19 19 19 19 19 19 19 19 20 19 20 20 21 21 22 22 22 22 22 22 22 23 24 24 24 24 24 24 24 25 25 25 25 25 25 25 25 26 26 27 26 26 26
20 21 21 21 21 21 20 20 20 20 21 21 22 22 23 23 23 24 24 24 24 24 25 26 26 26 25 25 25 25 25 26 25 25 25 26 26 26 27 27 27 27 26
22 23 22 22 22 22 22 22 22 22 22 22 23 23 24 24 24 24 24 24 24 25 25 26 26 26 27 26 26 26 26 26 27 27 27 27 27 26 27 26 27 26 25
24 24 23 23 23 23 23 24 24 24 24 24 24 24 24 25 24 24 24 25 25 25 26 26 27 27 26 26 26 27 27 26 26 27 28 28 27 26 26 27 26 26 26
25 25 25 26 26 26 25 25 25 25 25 25 25 25 25 25 25 25 25 25 25 26 26 27 27 27 26 26 26 26 27 27 26 27 27 27 27 27 27 27 27 27 27
27 27 27 28 28 28 27 27 27 26 26 26 26 26 26 26 26 25 25 25 26 26 27 27 27 26 26 26 26 26 27 27 27 27 27 27 27 28 28 28 28 28 28
29 29 29 30 29 29 28 28 28 28 28 28 27 27 27 26 26 26 26 26 26 27 27 27 27 27 27 28 28 27 27 27 27 28 28 28 28 28 28 28 29 29 29
31 31 30 30 30 29 29 29 29 29 28 28 28 28 27 27 27 27 26 26 27 27 27 27 27 28 28 28 29 29 29 29 29 29 29 29 29 29 30 30 30 29 29
32 32 31 30 30 30 29 29 29 29 29 29 28 28 28 27 27 27 27 27 27 27 28 28 28 29 29 29 29 29 30 30 30 30 30 30 31 30 30 30 31 31 31
32 32 32 31 31 31 30 29 29 30 29 29 28 28 28 27 27 27 27 28 28 29 29 29 30 30 30 30 30 30 30 30 30 30 29 29 29 29 28 29 30 30 30
32 32 32 32 32 32 31 31 30 30 29 29 29 29 28 28 28 28 28 28 29 29 30 30 31 31 30 30 29 29 29 28 29 29 29 28 28 28 28 27 28 29 29
33 33 33 33 33 32 31 31 31 30 30 29 29 29 29 28 28 28 28 28 29 30 31 31 30 30 29 29 28 28 28 28 28 28 28 28 28 28 28 28 28 28 28
34 34 35 35 33 33 32 32 31 31 31 30 29 29 28 28 28 29 29 29 30 30 31 31 30 30 29 29 29 29 29 29 28 28 28 29 29 29 29 28 28 27 27
34 35 35 35 34 33 32 32 32 31 30 30 29 29 29 29 29 30 30 30 30 31 31 31 31 30 30 29 29 29 28 29 29 29 29 29 29 29 29 28 28 27 27
34 34 34 33 32 32 32 32 31 31 31 30 30 30 30 30 29 30 30 30 31 31 31 31 31 31 30 30 29 29 29 29 29 29 30 29 29 29 28 28 28 28 28
34 33 33 33 33 32 32 33 32 31 31 31 31 31 31 30 30 31 31 31 32 31 31 31 31 31 31 30 29 30 30 30 29 29 29 29 29 29 28 28 28 28 28
33 33 33 32 32 32 32 33 32 31 31 31 31 31 31 31 31 31 32 32 31 31 31 31 31 30 30 30 30 30 30 29 29 29 29 29 29 28 28 28 28 29 29
33 32 32 31 31 31 32 32 32 32 32 32 32 32 32 32 32 32 32 32 32 32 31 31 31 31 31 31 31 30 29 29 29 29 29 29 29 28 28 28 28 28 28
32 31 31 31 30 30 30 31 31 31 31 31 31 32 32 32 32 32 32 32 32 31 31 31 31 31 31 30 30 29 29 30 30 29 29 28 28 28 28 28 28 28 28
31 30 30 30 29 29 30 30 30 30 30 30 31 31 31 32 32 32 32 31 30 31 31 31 31 30 30 29 29 29 29 29 29 29 29 28 28 28 28 28 27 27 27
30 30 30 30 30 30 30 30 30 30 30 31 31 31 31 31 31 31 31 30 30 30 30 30 30 29 28 28 28 28 28 28 28 28 28 28 28 27 27 27 27 27 27
28 28 29 29 29 29 29 29 29 30 31 31 31 31 31 31 30 30 29 29 29 29 29 29 29 28 27 27 27 27 27 28 28 28 28 27 27 27 27 27 27 27 26
Wind_Direction
293 294 294 292 291 294 298 297 299 300 302 304 302 303 304 303 302 301 300 301 301 299 297 295 295 295 296 296 297 296 295 296 295 291 288 286 286 286 285 286 287 286 285
292 291 292 294 292 291 295 297 297 296 298 301 299 299 300 301 301 299 299 297 298 297 295 293 293 294 295 295 295 294 293 293 293 291 289 286 285 285 285 286 286 286 284
292 290 291 292 294 292 293 294 294 293 296 299 299 299 301 303 303 300 298 297 296 294 292 292 292 293 295 295 293 293 293 292 292 290 287 286 285 285 284 285 286 285 284
288 289 292 294 297 297 295 294 295 296 297 299 301 301 301 301 300 298 297 296 295 294 292 292 292 292 293 294 293 293 292 291 290 289 287 285 285 285 283 284 284 282 284
285 285 288 290 294 295 295 295 297 298 297 297 298 300 299 299 298 297 296 295 294 293 293 291 292 292 292 293 293 292 291 289 288 287 286 285 284 284 283 283 282 281 282
284 285 285 287 290 291 292 295 296 296 297 297 299 300 300 299 298 297 296 295 293 293 293 293 292 292 292 291 291 290 290 289 288 287 287 286 284 284 283 282 281 281 281
284 285 285 286 287 289 291 294 294 294 295 296 298 299 300 301 300 299 298 297 296 295 296 297 296 293 291 290 290 289 289 288 286 286 286 287 285 284 282 282 282 283 282
284 285 285 284 286 288 289 291 292 293 294 295 297 299 301 302 302 301 300 299 298 298 298 299 297 296 291 289 289 288 288 287 286 286 285 285 284 283 282 282 281 282 283
282 283 284 285 285 286 287 287 288 290 293 294 295 297 299 300 300 300 301 300 299 300 300 299 299 297 292 291 290 289 289 287 286 286 285 284 283 283 283 283 282 282 283
281 282 283 284 284 286 286 286 287 288 290 293 294 295 296 298 299 299 301 301 300 301 301 300 300 298 295 293 293 291 290 288 286 287 286 286 284 284 284 282 281 282 282
282 282 282 283 283 284 284 285 285 286 288 289 291 293 294 296 298 299 299 299 300 300 301 301 301 300 297 295 294 294 292 292 290 289 287 286 286 284 283 282 281 281 281
281 282 282 282 282 282 282 284 284 285 287 288 288 289 291 293 296 297 298 298 299 300 300 301 301 301 299 297 295 294 292 291 290 290 289 287 286 285 284 281 281 281 281
280 281 281 281 282 282 283 284 285 287 286 286 287 287 289 291 293 296 296 297 297 299 300 301 301 301 299 297 295 293 292 291 289 289 289 287 286 285 285 282 280 281 280
277 278 280 281 282 283 283 283 284 286 285 284 286 287 288 289 290 292 293 295 297 299 300 301 301 300 299 297 295 294 293 292 291 290 289 288 288 287 285 284 282 282 281
278 279 280 280 280 282 282 282 283 285 284 284 284 286 287 287 288 290 291 293 295 297 300 301 302 301 300 297 296 295 295 294 293 292 291 290 290 289 288 286 284 282 282
278 279 279 278 279 280 279 280 282 284 285 284 285 285 285 285 286 289 291 293 294 297 300 300 300 301 302 299 297 297 296 296 294 292 292 291 291 290 288 287 285 284 283
277 277 277 277 277 277 278 279 281 282 283 284 284 284 283 284 286 289 291 292 293 295 298 299 300 300 301 300 298 298 297 296 293 292 292 291 291 290 289 287 287 285 285
277 278 278 277 275 275 276 277 278 280 280 281 282 282 282 283 285 287 290 291 293 295 298 299 300 300 300 299 299 298 298 297 295 293 292 292 291 291 290 289 288 286 285
277 278 278 278 276 275 275 276 277 277 277 278 279 281 283 283 285 287 289 292 293 294 296 299 299 300 300 299 299 299 299 297 296 295 293 293 292 291 290 288 287 286 286
278 278 278 277 276 276 276 277 277 276 277 277 279 280 282 284 284 286 288 290 292 292 295 297 298 299 300 300 299 299 299 298 297 296 295 294 293 291 289 288 287 287 288
276 276 277 278 278 276 276 278 277 276 277 278 279 280 281 282 284 285 287 289 290 292 294 295 297 297 298 298 299 299 299 298 297 297 297 295 293 292 290 288 288 288 288
275 275 274 275 276 276 277 277 276 275 276 278 279 280 282 282 283 283 286 288 290 291 293 294 295 296 296 296 296 297 298 298 297 296 296 296 293 290 289 288 288 289 288
274 275 275 274 274 274 276 278 279 278 278 279 280 281 281 282 283 283 284 286 287 289 291 293 294 295 295 294 294 295 296 297 297 295 295 295 294 292 290 289 289 288 288
274 275 276 276 276 275 275 277 278 280 280 280 280 281 281 282 283 283 284 287 288 290 292 293 294 294 294 295 295 295 296 296 296 296 295 295 294 293 293 291 289 289 289
275 275 276 276 278 279 278 278 279 279 280 281 281 282 283 284 285 285 286 287 289 292 293 293 295 296 295 294 295 296 296 295 295 295 295 295 294 293 293 292 291 290 289
275 277 278 279 278 279 280 280 280 280 281 282 282 282 283 282 283 284 284 286 289 291 293 293 294 295 295 295 295 296 297 296 295 294 295 296 296 295 293 293 292 291 290
Height
5889 5888 5886 5884 5883 5882 5882 5880 5879 5877 5876 5874 5873 5871 5869 5867 5865 5863 5861 5859 5857 5856 5854 5852 5851 5849 5847 5845 5843 5841 5839 5838 5836 5835 5833 5832 5830 5829 5828 5826 5825 5824 5823
5886 5884 5883 5881 5880 5879 5878 5876 5875 5873 5872 5870 5868 5867 5865 5862 5860 5858 5856 5854 5853 5851 5849 5847 5846 5844 5842 5840 5838 5836 5834 5832 5830 5829 5827 5826 5824 5823 5821 5820 5818 5817 5816
5882 5880 5879 5877 5876 5875 5874 5872 5871 5869 5868 5866 5864 5862 5860 5858 5856 5854 5852 5850 5848 5846 5844 5842 5840 5838 5836 5834 5832 5830 5828 5826 5824 5822 5821 5819 5817 5816 5815 5813 5812 5810 5809
5878 5877 5875 5874 5872 5871 5869 5868 5866 5864 5863 5861 5859 5857 5855 5853 5851 5849 5847 5844 5842 5840 5838 5836 5834 5832 5830 5828 5825 5823 5821 5819 5817 5815 5814 5812 5810 5809 5807 5806 5805 5803 5802
5874 5873 5871 5870 5868 5866 5865 5863 5861 5860 5858 5856 5854 5852 5849 5847 5845 5843 5841 5839 5836 5834 5832 5830 5828 5825 5823 5821 5819 5816 5814 5812 5810 5808 5806 5805 5803 5802 5800 5798 5797 5796 5795
5869 5867 5866 5865 5863 5861 5860 5858 5856 5854 5852 5850 5848 5846 5844 5841 5839 5836 5834 5832 5830 5827 5825 5823 5820 5818 5816 5814 5812 5809 5807 5804 5803 5801 5799 5798 5796 5794 5792 5791 5789 5788 5787
5863 5862 5861 5859 5858 5856 5854 5853 5851 5849 5847 5845 5842 5840 5837 5835 5832 5830 5827 5825 5823 5820 5818 5815 5813 5811 5809 5806 5804 5802 5799 5797 5795 5794 5792 5790 5788 5787 5785 5783 5782 5780 5779
5857 5856 5855 5853 5852 5850 5848 5847 5845 5843 5841 5839 5837 5834 5831 5829 5826 5823 5821 5818 5816 5813 5810 5808 5805 5802 5800 5798 5795 5793 5791 5789 5787 5785 5784 5782 5780 5778 5777 5776 5774 5773 5772
5851 5850 5848 5847 5845 5844 5842 5840 5838 5836 5834 5832 5830 5827 5825 5822 5819 5817 5814 5812 5809 5806 5803 5800 5797 5795 5792 5790 5787 5785 5783 5780 5778 5776 5775 5774 5772 5770 5769 5768 5766 5765 5764
5844 5842 5841 5840 5838 5837 5835 5833 5831 5829 5827 5825 5823 5820 5818 5815 5813 5810 5807 5805 5802 5799 5796 5793 5790 5787 5784 5782 5779 5777 5775 5773 5771 5769 5767 5766 5764 5762 5761 5759 5758 5756 5755
5836 5834 5833 5832 5830 5828 5827 5825 5823 5821 5820 5818 5815 5813 5811 5808 5806 5803 5800 5798 5795 5792 5789 5786 5783 5780 5777 5775 5772 5770 5767 5765 5763 5761 5759 5758 5756 5754 5752 5750 5749 5748 5746
5827 5826 5825 5823 5822 5820 5818 5817 5815 5813 5811 5809 5808 5806 5803 5801 5799 5796 5793 5791 5788 5784 5781 5779 5776 5773 5770 5767 5765 5762 5760 5757 5755 5753 5751 5749 5748 5745 5743 5742 5740 5739 5737
5818 5817 5815 5814 5813 5811 5810 5808 5806 5804 5803 5801 5799 5798 5795 5793 5791 5788 5786 5783 5780 5777 5774 5771 5768 5765 5762 5759 5756 5754 5751 5749 5747 5745 5743 5741 5739 5737 5734 5733 5731 5730 5728
5809 5807 5806 5805 5804 5802 5801 5799 5798 5796 5794 5792 5791 5789 5787 5785 5783 5781 5778 5775 5773 5770 5767 5763 5760 5757 5753 5750 5748 5745 5743 5741 5738 5736 5733 5732 5730 5728 5726 5724 5722 5721 5719
5799 5798 5797 5795 5794 5793 5791 5790 5789 5787 5786 5784 5782 5781 5779 5777 5775 5772 5770 5768 5765 5762 5759 5755 5752 5749 5745 5742 5739 5737 5734 5732 5730 5727 5725 5723 5721 5719 5717 5715 5713 5712 5710
5789 5788 5787 5786 5784 5783 5782 5781 5779 5778 5777 5775 5774 5772 5770 5769 5766 5764 5762 5760 5757 5754 5751 5747 5744 5740 5737 5734 5731 5729 5726 5724 5721 5719 5717 5714 5712 5710 5708 5706 5705 5703 5701
5779 5778 5777 5775 5774 5773 5772 5771 5770 5769 5768 5766 5765 5763 5762 5760 5758 5756 5754 5751 5749 5746 5742 5739 5736 5733 5729 5726 5724 5721 5718 5716 5713 5711 5709 5706 5704 5701 5699 5697 5695 5694 5692
5768 5767 5766 5765 5764 5763 5762 5761 5760 5759 5758 5757 5756 5754 5753 5751 5749 5747 5745 5742 5740 5737 5734 5731 5728 5725 5722 5719 5716 5713 5710 5707 5705 5702 5700 5697 5695 5693 5690 5688 5686 5685 5683
5758 5757 5756 5754 5752 5752 5752 5751 5751 5750 5748 5747 5746 5745 5743 5742 5740 5738 5736 5734 5732 5729 5726 5723 5720 5717 5714 5711 5708 5705 5701 5699 5696 5693 5691 5688 5686 5684 5681 5679 5677 5675 5673
5748 5747 5746 5745 5743 5743 5742 5741 5740 5740 5739 5738 5737 5735 5734 5732 5731 5729 5727 5725 5723 5720 5718 5715 5712 5708 5705 5702 5699 5696 5693 5690 5687 5684 5681 5679 5677 5674 5672 5670 5668 5666 5664
5737 5736 5736 5735 5734 5733 5732 5731 5730 5729 5728 5727 5726 5725 5724 5722 5721 5719 5717 5715 5713 5711 5708 5706 5703 5700 5696 5693 5691 5687 5684 5681 5678 5675 5673 5670 5667 5665 5663 5661 5659 5657 5655
5727 5726 5725 5724 5724 5723 5722 5721 5720 5719 5718 5717 5716 5715 5714 5713 5711 5710 5708 5706 5704 5702 5699 5697 5694 5690 5687 5685 5681 5678 5675 5673 5670 5667 5664 5661 5658 5656 5654 5651 5649 5647 5646
5716 5716 5715 5714 5713 5713 5712 5711 5710 5709 5708 5707 5706 5705 5704 5703 5701 5700 5698 5696 5694 5692 5689 5687 5684 5681 5678 5675 5672 5670 5667 5664 5661 5658 5655 5652 5649 5647 5645 5643 5640 5638 5636
5706 5705 5705 5704 5703 5702 5702 5701 5700 5699 5698 5697 5696 5695 5694 5693 5692 5690 5688 5686 5684 5682 5680 5677 5674 5672 5669 5666 5663 5660 5658 5655 5652 5649 5646 5643 5640 5638 5636 5633 5631 5629 5627
5696 5695 5695 5694 5694 5693 5692 5691 5690 5690 5689 5688 5687 5686 5684 5683 5682 5680 5679 5677 5674 5672 5670 5667 5665 5662 5659 5657 5654 5651 5649 5646 5643 5640 5637 5634 5632 5629 5627 5624 5622 5620 5618
5686 5686 5685 5685 5684 5684 5683 5682 5681 5680 5679 5678 5677 5675 5674 5673 5672 5671 5669 5667 5665 5663 5661 5658 5656 5653 5650 5648 5645 5642 5640 5637 5634 5631 5628 5626 5623 5620 5618 5616 5613 5611 5609